Погода в Багульном

Россия / Забайкальский край     52°24′25″N   116°47′58″E
темп.,
°C
ветер,
м/с
пор.,
м/с
влажн.,
%
обл.,
%
осадки,
мм/ч
давл.,
гПа
погр.,
м
21 апреля, ср
ср2100:00+7в11361 0.0 100410
03:00+5ссв21410 0.0 100410
06:00+3с224726 0.0 100515
09:00+9юв123515 0.0 1003222
12:00+16з46265 0.0 1001928
15:00+19сз6621100 0.0 10001376
18:00+18сз7725100 0.0 10011593
21:00+9ссз61156100 0.1 1007572
22 апреля, чт
чт2200:00+6с4858100 0.0 1011540
03:00+3ссз41063100 0.0 1013447
06:00+1с41059100 0.0 1016444
09:00+3с684072 0.0 1019698
12:00+7с663151 0.0 10191326
15:00+9с67225 0.0 10201650
18:00+8с7722100 0.0 10221487
21:00+4с81232100 0.0 1027693
23 апреля, пт
пт2300:00+2ссв6938100 0.0 1032713
03:00−1ссв3747100 0.0 1034462
06:00−2ссв4759100 0.0 1037627
09:00−1св443877 0.0 10391004
12:00+4ссз342891 0.0 10391799
15:00+6ссз451732 0.0 10362195
18:00+6ссз4613100 0.0 10362321
21:00+2сз221716 0.0 103710
24 апреля, сб
сб2400:000сз2221100 0.0 103816
03:00−1зсз222571 0.0 103913
06:00−3зсз222996 0.0 103914
09:00+4зсз362052 0.0 1038529
12:00+9зсз56185 0.0 10341379
15:00+12сз461533 0.0 10302068
18:00+13сз451598 0.0 10272426
21:00+7ссз222460 0.0 102810
25 апреля, вс
вс2500:00+5с222896 0.0 102810
03:00+2с1135100 0.0 102710
06:00+1зсз0038100 0.0 102610
09:00+6ю1128100 0.0 1024273
12:00+12юз3416100 0.0 10201030
15:00+15юз451785 0.0 10161833
18:00+15юз551797 0.0 10131878
21:00+10ююз2225100 0.0 101312